Regional Weather Roundup
Issued by NWS

Home | Current Version | Previous Version | Graphics & Text | Print | Product List | Glossary On
Versions: 1 2 3 4 5 6 7 8 9 10 11 12 13 14 15 16 17 18 19 20 21 22 23 24 25 26 27 28 29 30 31 32 33 34 35 36 37 38 39 40 41 42 43 44 45 46 47 48 49 50
000
ASUS43 KMKX 280600
RWRWI

WISCONSIN REGIONAL WEATHER ROUNDUP
NATIONAL WEATHER SERVICE MILWAUKEE/SULLIVAN WI
1200 AM CST TUE FEB 28 2017

NOTE: "FAIR" INDICATES FEW OR NO CLOUDS BELOW 12,000 FEET WITH NO
SIGNIFICANT WEATHER AND/OR OBSTRUCTIONS TO VISIBILITY.

WIZ001-002-006>008-014>016-023>028-280700-
NORTHWEST WISCONSIN

CITY           SKY/WX    TMP DP  RH WIND       PRES   REMARKS
SUPERIOR ARPT  CLOUDY    31  29  92 E5        29.89F WCI  26
ASHLAND        CLOUDY    24  23  96 CALM      29.90S
6HR MIN TEMP:  22; 6HR MAX TEMP:  29;

HAYWARD        CLOUDY    37  22  54 CALM      29.87F
6HR MIN TEMP:  33; 6HR MAX TEMP:  37;

SIREN          PTCLDY    35  23  60 SE3       29.86F
CUMBERLAND     CLOUDY    32  23  69 E5        29.86F WCI  27
RICE LAKE      MOCLDY    34  23  64 E6        29.89F WCI  29
CHETEK         PTCLDY    31  23  72 CALM      29.88F
LADYSMITH      CLOUDY    33  26  73 E6        29.91F WCI  28
EAU CLAIRE     NOT AVBL
MENOMONIE      MOCLDY    33  26  75 SE6       29.87F WCI  27
NEW RICHMOND   PTCLDY    34  25  70 SE5       29.84F WCI  29
OSCEOLA        CLOUDY    37  26  66 SE9       29.86F WCI  30
$$

WIZ003>005-009-010-017-018-280700-
NORTH CENTRAL WISCONSIN

CITY           SKY/WX    TMP DP  RH WIND       PRES   REMARKS
MANITOWISH WTR CLOUDY    31  24  74 SE7       29.91F WCI  24
ARBOR VITAE    CLOUDY    32  24  72 SE6         N/A  WCI  26
WOODRUFF       CLOUDY    32  24  72 SE6         N/A  WCI  26
RHINELANDER    CLOUDY    32  27  81 CALM      29.94F
6HR MIN TEMP:  31; 6HR MAX TEMP:  36;

EAGLE RIVER    CLOUDY    31  24  75 S3        29.94S
LAND O LAKES   CLOUDY    32  25  76 S5        29.95F WCI  27
PHILLIPS       CLOUDY    34  27  76 CALM      29.89F
TOMAHAWK       CLOUDY    32  26  80 CALM      29.93F
MEDFORD        PTCLDY    35  29  79 SE7       29.91F WCI  29
MERRILL        NOT AVBL
$$

WIZ029-030-035-036-043>047-280700-
CENTRAL WISCONSIN

CITY           SKY/WX    TMP DP  RH WIND       PRES   REMARKS
WAUSAU         CLOUDY    32  27  81 E5        29.93F WCI  27
6HR MIN TEMP:  31; 6HR MAX TEMP:  38;

MOSINEE        CLOUDY    32  30  93 E5        29.96F WCI  27
MARSHFIELD     CLOUDY    34  28  79 E7        29.91F WCI  28
6HR MIN TEMP:  33; 6HR MAX TEMP:  37;

STEVENS POINT  CLOUDY    32  28  87 E5        29.96F WCI  27
WAUPACA        CLOUDY    33  29  88 CALM      29.99F
WAUTOMA        CLOUDY    33  31  92 CALM      29.97F
6HR MIN TEMP:  28; 6HR MAX TEMP:  38;

WISC RAPIDS    CLOUDY    36  30  79 SE5       29.95F WCI  32
6HR MIN TEMP:  33; 6HR MAX TEMP:  40;

CAMP DOUGLAS   NOT AVBL
$$

WIZ011>013-019>022-031-037>040-048>050-280700-
NORTHEAST WISCONSIN

CITY           SKY/WX    TMP DP  RH WIND       PRES   REMARKS
ANTIGO         CLOUDY    31  28  90 SE6       29.96F WCI  25
SHAWANO        CLOUDY    32  30  91 CALM      30.00F
6HR MIN TEMP:  30; 6HR MAX TEMP:  38;

OCONTO         CLOUDY    30  29  94 CALM      30.03F
STURGEON BAY   MOCLDY    36  34  92 S8        30.04F WCI  30
6HR MIN TEMP:  34; 6HR MAX TEMP:  36;

GREEN BAY      CLOUDY    33  31  92 CALM      30.01F
6HR MIN TEMP:  31; 6HR MAX TEMP:  36;

MANITOWOC      NOT AVBL
APPLETON       CLOUDY    34  30  86 E3        29.98F
CLINTONVILLE   CLOUDY    32  30  93 E3        29.99F
OSHKOSH        CLOUDY    37  31  78 S6        29.98F WCI  32
6HR MIN TEMP:  32; 6HR MAX TEMP:  37;

$$

WIZ032>034-041-042-053>061-280700-
SOUTHWEST WISCONSIN

CITY           SKY/WX    TMP DP  RH WIND       PRES   REMARKS
LA CROSSE      CLOUDY    39  32  76 SE5       29.90F
6HR MIN TEMP:  38; 6HR MAX TEMP:  44;

SPARTA         CLOUDY    36  32  85 CALM      29.92F
VIROQUA        CLOUDY    40  32  74 SE10      29.91S WCI  33
BOSCOBEL       LGT RAIN  38  36  92 CALM      29.94S FOG
6HR MIN TEMP:  34; 6HR MAX TEMP:  45; 6HR PCP:  0.03;

PRAIRIE DU CHI LGT RAIN  41  35  79 E3        29.92F
PLATTEVILLE    MOCLDY    42  36  79 E8        29.91F
$$

WIZ056-057-062-063-064-067-068-280700-
SOUTH CENTRAL WISCONSIN

CITY           SKY/WX    TMP DP  RH WIND       PRES   REMARKS
REEDSBURG      PTCLDY    37  32  82 E3        29.93F
BARABOO/DELLS  PTCLDY    38  31  76 CALM      29.93F
LONE ROCK      NOT AVBL
MINERAL POINT  CLOUDY    45  36  70 SE9       29.92F
MADISON        CLOUDY    42  33  70 SE10      29.95F
6HR MIN TEMP:  36; 6HR MAX TEMP:  45;

MIDDLETON      CLOUDY    43  34  71 SE3       29.95F
WATERTOWN      CLOUDY    38  34  85 E6        29.98F WCI  33
MONROE         DRIZZLE   43  34  70 SE6       29.94F
JANESVILLE     CLOUDY    45  36  70 S7        29.97F
$$

WIZ051-052-058>065-066-070>072-280700-
SOUTHEAST WISCONSIN

CITY           SKY/WX    TMP DP  RH WIND       PRES   REMARKS
MILWAUKEE      MOCLDY    44  35  70 S9        30.02S
6HR MIN TEMP:  40; 6HR MAX TEMP:  45;

WAUKESHA       MOCLDY    39  32  75 SE6       30.02S WCI  35
MILWAUKEE/TIMM MOCLDY    41  32  70 S6        30.03S
RACINE         MOCLDY    41  35  79 S10       30.04R
6HR MIN TEMP:  40; 6HR MAX TEMP:  42;

KENOSHA        CLOUDY    43  36  76 S8        30.01F
6HR MIN TEMP:  40; 6HR MAX TEMP:  44;

FOND DU LAC    CLOUDY    39  31  72 S6        29.99F WCI  35
6HR MIN TEMP:  35; 6HR MAX TEMP:  39;

SHEBOYGAN      CLOUDY    35  32  88 SE3       30.02F
6HR MIN TEMP:  30; 6HR MAX TEMP:  37;

WEST BEND      CLOUDY    37  34  87 CALM      30.01F
JUNEAU         CLOUDY    37  32  84 SE8       30.00F WCI  30
$$

LSZ147-162-280700-
LAKE SUPERIOR

STATION/POSITION TIME  TEMP    WIND        PRES    WAVE
                       AIR SEA DIR/SP/G            HT/PER
                 (UTC) (F)     (DEG/KT/KT) (MB)    (FT/S)
DEVILS ISLAND    0500   33      60/  6/  6 1013.8F
PORT WING        0540   30      60/  6/  8 1012.9R
SAXON HARBOR     0530   37     200/  4/ 20 1011.5F
$$

LMZ867-665-643>646-280700-
LAKE MICHIGAN

STATION/POSITION TIME  TEMP    WIND        PRES    WAVE
                       AIR SEA DIR/SP/G            HT/PER
                 (UTC) (F)     (DEG/KT/KT) (MB)    (FT/S)
CHAMBERS ISLAND  0540   37     140/  4/  8 1016.9S
NORTHPORT PIER   0540   36     150/  6/ 11 1017.6F
SISTER BAY       0505   36     150/ 10/ 13   N/A
ALGOMA LAKESHORE 0341          200/  5/  6   N/A
KEWAUNEE LAKESHO 0530   36      CALM  /  1 1017.0F
SHEBOYGAN LAKESH 0500   38     170/  4/  4 1017.7F
PORT WASHINGTON  0540   38      CALM  /  1 1017.9F
MILWAUKEE LAKESH 0530   40     140/  8/  9   N/A
KENOSHA   LAKESH 0500   39     180/ 10/ 12 1016.9
$$

TC  - TEMPERATURE IN CELSIUS
VSB - VISIBILITY IN STATUTE MILES
WCI - WIND CHILL INDEX
HX  - HEAT INDEX





USA.gov is the U.S. government's official web portal to all federal, state and local government web resources and services.